When you browse on this site, cookies collect data to enhance your experience and personalize the content and advertising you see.
Visit our Privacy Policy to learn more. By continuing to use the site, you agree to this use of cookies and data.
  • In Hungary
  • List of Countries
  • For 7 days
  • Water Temperature
  • Satellite Maps
  • Weather Map
  • News
  • Weather Widgets
  • user-avatar
    Login

    Hourly Weather Bugibba

    Today, 14 December, Friday

    Time Temperature Precipitation Wind Pressure Humidity
    00:00 +18°C° 0 mm 7 mps 758 mmHg 67%
    01:00 +18°C° 0 mm 7 mps 757 mmHg 67%
    02:00 +18°C° 0 mm 7 mps 757 mmHg 68%
    03:00 +18°C° 0 mm 7 mps 757 mmHg 69%
    04:00 +18°C° 0 mm 7 mps 756 mmHg 70%
    05:00 +18°C° 0 mm 7 mps 756 mmHg 70%
    06:00 +18°C° 0 mm 7 mps 756 mmHg 70%
    07:00 +18°C° 0 mm 7 mps 756 mmHg 70%
    08:00 +18°C° 0 mm 7 mps 756 mmHg 69%
    09:00 +18°C° 0 mm 7 mps 756 mmHg 69%
    10:00 +18°C° 0 mm 7 mps 756 mmHg 69%
    11:00 +18°C° 0 mm 7 mps 755 mmHg 69%
    12:00 +18°C° 0 mm 7 mps 755 mmHg 69%
    13:00 +18°C° 0 mm 7 mps 755 mmHg 69%
    14:00 +18°C° 0 mm 7 mps 754 mmHg 69%
    15:00 +18°C° 0 mm 7 mps 754 mmHg 69%
    16:00 +18°C° 0 mm 7 mps 754 mmHg 69%
    17:00 +18°C° 0.2 mm 7 mps 754 mmHg 68%
    18:00 +17°C° 0.2 mm 7 mps 754 mmHg 67%
    19:00 +17°C° 0.2 mm 8 mps 754 mmHg 66%
    20:00 +17°C° 0.3 mm 8 mps 754 mmHg 64%
    21:00 +17°C° 0.3 mm 7 mps 754 mmHg 62%
    22:00 +17°C° 0.3 mm 7 mps 754 mmHg 61%
    23:00 +17°C° 0.2 mm 7 mps 754 mmHg 61%

    Tomorrow, 15 December, Saturday

    Time Temperature Precipitation Wind Pressure Humidity
    00:00 +17°C° 0.2 mm 6 mps 754 mmHg 61%
    01:00 +17°C° 0.2 mm 6 mps 754 mmHg 61%
    02:00 +16°C° 0.7 mm 5 mps 754 mmHg 61%
    03:00 +17°C° 0.7 mm 4 mps 754 mmHg 62%
    04:00 +17°C° 0.7 mm 4 mps 753 mmHg 62%
    05:00 +17°C° 0.2 mm 4 mps 754 mmHg 61%
    06:00 +17°C° 0.2 mm 4 mps 754 mmHg 61%
    07:00 +17°C° 0.2 mm 4 mps 754 mmHg 60%
    08:00 +16°C° 0 mm 5 mps 755 mmHg 61%
    09:00 +16°C° 0 mm 6 mps 755 mmHg 63%
    10:00 +17°C° 0 mm 7 mps 756 mmHg 64%
    11:00 +16°C° 0.1 mm 8 mps 756 mmHg 67%
    12:00 +16°C° 0.1 mm 9 mps 756 mmHg 70%
    13:00 +16°C° 0.1 mm 10 mps 756 mmHg 73%
    14:00 +16°C° 0 mm 11 mps 757 mmHg 73%
    15:00 +15°C° 0 mm 13 mps 757 mmHg 73%
    16:00 +15°C° 0 mm 14 mps 758 mmHg 74%
    17:00 +14°C° 0 mm 14 mps 758 mmHg 72%
    18:00 +14°C° 0 mm 14 mps 759 mmHg 71%
    19:00 +14°C° 0 mm 14 mps 759 mmHg 69%
    20:00 +14°C° 0 mm 14 mps 760 mmHg 69%
    21:00 +14°C° 0 mm 14 mps 760 mmHg 68%
    22:00 +13°C° 0 mm 14 mps 760 mmHg 67%
    23:00 +13°C° 0 mm 14 mps 761 mmHg 67%

    Day after tomorrow, 16 December, Sunday

    Time Temperature Precipitation Wind Pressure Humidity
    00:00 +13°C° 0 mm 13 mps 761 mmHg 66%
    01:00 +13°C° 0 mm 13 mps 761 mmHg 66%
    02:00 +13°C° 0 mm 13 mps 761 mmHg 66%
    03:00 +13°C° 0 mm 12 mps 761 mmHg 66%
    04:00 +13°C° 0 mm 12 mps 761 mmHg 66%
    05:00 +13°C° 0 mm 11 mps 762 mmHg 66%
    06:00 +13°C° 0 mm 10 mps 762 mmHg 65%
    07:00 +13°C° 0 mm 9 mps 763 mmHg 65%
    08:00 +13°C° 0 mm 9 mps 763 mmHg 64%
    09:00 +13°C° 0 mm 8 mps 764 mmHg 64%
    10:00 +13°C° 0 mm 8 mps 764 mmHg 63%
    11:00 +13°C° 0 mm 8 mps 764 mmHg 64%
    12:00 +15°C° 0 mm 8 mps 764 mmHg 64%
    13:00 +15°C° 0 mm 8 mps 764 mmHg 65%
    14:00 +15°C° 0 mm 8 mps 764 mmHg 66%
    15:00 +15°C° 0 mm 8 mps 764 mmHg 66%
    16:00 +15°C° 0 mm 9 mps 764 mmHg 67%
    17:00 +15°C° 0 mm 9 mps 764 mmHg 68%
    18:00 +16°C° 0 mm 9 mps 764 mmHg 69%
    19:00 +16°C° 0 mm 9 mps 765 mmHg 70%
    20:00 +16°C° 0 mm 9 mps 765 mmHg 71%
    21:00 +16°C° 0 mm 9 mps 765 mmHg 72%
    22:00 +16°C° 0 mm 9 mps 765 mmHg 73%
    23:00 +17°C° 0 mm 8 mps 765 mmHg 74%

    17 December, Monday

    Time Temperature Precipitation Wind Pressure Humidity
    00:00 +17°C° 0 mm 8 mps 765 mmHg 75%
    01:00 +17°C° 0 mm 7 mps 765 mmHg 77%
    02:00 +17°C° 0 mm 7 mps 765 mmHg 76%
    03:00 +17°C° 0 mm 7 mps 764 mmHg 75%
    04:00 +17°C° 0 mm 7 mps 764 mmHg 75%
    05:00 +17°C° 0 mm 7 mps 764 mmHg 74%
    06:00 +18°C° 0 mm 7 mps 764 mmHg 73%
    07:00 +19°C° 0 mm 6 mps 764 mmHg 72%
    08:00 +19°C° 0 mm 6 mps 764 mmHg 73%
    09:00 +19°C° 0 mm 6 mps 764 mmHg 74%
    10:00 +19°C° 0 mm 6 mps 764 mmHg 75%
    11:00 +18°C° 0 mm 7 mps 764 mmHg 75%
    12:00 +18°C° 0 mm 7 mps 764 mmHg 76%
    13:00 +18°C° 0 mm 7 mps 763 mmHg 76%
    14:00 +18°C° 0 mm 7 mps 763 mmHg 76%
    15:00 +18°C° 0 mm 8 mps 763 mmHg 76%
    16:00 +18°C° 0 mm 8 mps 763 mmHg 76%
    17:00 +18°C° 0 mm 9 mps 763 mmHg 74%
    18:00 +18°C° 0 mm 10 mps 763 mmHg 72%
    19:00 +18°C° 0 mm 11 mps 764 mmHg 70%
    20:00 +17°C° 0 mm 11 mps 764 mmHg 70%
    21:00 +17°C° 0 mm 12 mps 764 mmHg 69%
    22:00 +17°C° 0 mm 13 mps 764 mmHg 68%
    23:00 +17°C° 0 mm 13 mps 764 mmHg 67%

    18 December, Tuesday

    Time Temperature Precipitation Wind Pressure Humidity
    00:00 +15°C° 0 mm 13 mps 764 mmHg 67%
    01:00 +15°C° 0 mm 14 mps 764 mmHg 66%
    02:00 +15°C° 0 mm 14 mps 764 mmHg 66%
    03:00 +15°C° 0 mm 14 mps 764 mmHg 66%
    04:00 +15°C° 0 mm 14 mps 764 mmHg 66%
    05:00 +15°C° 0 mm 14 mps 764 mmHg 67%
    06:00 +15°C° 0 mm 14 mps 764 mmHg 67%
    07:00 +14°C° 0 mm 14 mps 764 mmHg 68%
    08:00 +15°C° 0 mm 13 mps 765 mmHg 68%
    09:00 +15°C° 0 mm 13 mps 765 mmHg 67%
    10:00 +15°C° 0 mm 13 mps 765 mmHg 67%
    11:00 +15°C° 0 mm 13 mps 765 mmHg 67%
    12:00 +15°C° 0 mm 14 mps 765 mmHg 67%
    13:00 +15°C° 0 mm 14 mps 764 mmHg 67%
    14:00 +15°C° 0 mm 13 mps 764 mmHg 68%
    15:00 +15°C° 0 mm 13 mps 764 mmHg 68%
    16:00 +15°C° 0 mm 12 mps 764 mmHg 69%
    17:00 +15°C° 0 mm 12 mps 765 mmHg 68%
    18:00 +16°C° 0 mm 11 mps 765 mmHg 68%
    19:00 +16°C° 0 mm 10 mps 766 mmHg 68%
    20:00 +16°C° 0 mm 9 mps 766 mmHg 68%
    21:00 +16°C° 0 mm 9 mps 766 mmHg 68%
    22:00 +15°C° 0 mm 8 mps 767 mmHg 68%
    23:00 +15°C° 0 mm 8 mps 767 mmHg 69%

    19 December, Wednesday

    Time Temperature Precipitation Wind Pressure Humidity
    00:00 +15°C° 0 mm 7 mps 767 mmHg 69%
    01:00 +15°C° 0 mm 7 mps 767 mmHg 69%
    02:00 +15°C° 0 mm 6 mps 767 mmHg 68%
    03:00 +15°C° 0 mm 6 mps 767 mmHg 67%
    04:00 +15°C° 0 mm 5 mps 767 mmHg 66%
    05:00 +15°C° 0 mm 5 mps 767 mmHg 65%
    06:00 +15°C° 0 mm 4 mps 767 mmHg 64%
    07:00 +16°C° 0 mm 3 mps 767 mmHg 63%
    08:00 +16°C° 0 mm 3 mps 768 mmHg 63%
    09:00 +16°C° 0 mm 3 mps 768 mmHg 62%
    10:00 +16°C° 0 mm 2 mps 768 mmHg 62%
    11:00 +16°C° 0 mm 3 mps 768 mmHg 63%
    12:00 +16°C° 0 mm 3 mps 767 mmHg 63%
    13:00 +15°C° 0 mm 4 mps 767 mmHg 64%
    14:00 +15°C° 0 mm 4 mps 767 mmHg 64%
    15:00 +17°C° 0 mm 4 mps 767 mmHg 64%
    16:00 +17°C° 0 mm 4 mps 767 mmHg 64%
    17:00 +17°C° 0 mm 4 mps 767 mmHg 63%
    18:00 +17°C° 0 mm 4 mps 767 mmHg 63%
    19:00 +17°C° 0 mm 4 mps 767 mmHg 62%
    20:00 +16°C° 0 mm 5 mps 767 mmHg 62%
    21:00 +16°C° 0 mm 5 mps 767 mmHg 63%
    22:00 +17°C° 0 mm 5 mps 767 mmHg 63%
    23:00 +17°C° 0 mm 6 mps 767 mmHg 65%
    Show more